Location: ???????
(55.3754°N, 39.3545°E)
Time: 17:37:46
(UTC+00:00)

Cosmos 2056 Rocket - Pass Details

Date: 14 April 2026
Orbit: 738 x 795 km, 74.0° (Epoch: 16 May)

Event Time Altitude Azimuth Distance (km) Brightness Sun altitude
Exits shadow 23:17:12 29° 260° (W) 1,421 4.5 -20.7°
Maximum altitude 23:19:22 43° 309° (NW) 1,118 4.3 -20.5°
Drops below altitude 10° 23:24:31 10° 21° (NNE) 2,379 7.2 -20.1°
Sets 23:27:04 0° 28° (NNE) 3,311 8.4 -20.0°
